This demonstration page uses our WeatherBlox Daily Observations layout. Learn more.

Left ArrowRight Arrow

Hourly Observations for December 22, 2019

Temp ( °F °C ) Dew Point ( °F °C ) Humidity (%) Winds ( mph kmh ) Pressure ( in mb ) Visibility ( mi km ) Precip ( " mm )
12:25 am 00:25 Clear with Mist and Fog 41 5 39 3.9 93 93 Calm 29.80 1009 2 2 0.00 0.00
12:42 am 00:42 Clear with Mist and Fog 40 4.4 39 3.9 97 97 NE 3 6 29.79 1009 3 4 0.00 0.00
12:53 am 00:53 Clear with Mist and Fog 41 5 39 3.9 93 93 N 3 6 29.77 1008 3 5 0.00 0.00
1:53 am 01:53 Clear with Mist and Fog 41 5 39 3.9 93 93 Calm 29.75 1008 5 8 0.00 0.00
2:53 am 02:53 Clear 42 5.6 40 4.4 92 92 N 5 7 29.73 1007 8 13 0.00 0.00
3:53 am 03:53 Clear 42 5.6 40 4.4 92 92 NW 5 7 29.71 1006 10 16 0.00 0.00
4:53 am 04:53 Clear 43 6.1 40 4.4 89 89 NNE 5 7 29.67 1005 9 14 0.00 0.00
5:53 am 05:53 Clear 44 6.7 40 4.4 85 85 Calm 29.65 1004 10 16 0.00 0.00
6:53 am 06:53 Cloudy 43 6.1 40 4.4 89 89 Calm 29.67 1005 10 16 0.00 0.00
7:53 am 07:53 Cloudy with Light Rain 47 8.3 42 5.6 83 83 VRB 5 7 29.68 1005 6 10 0.04 1.02
8:53 am 08:53 Cloudy with Rain 47 8.3 42 5.6 83 83 SSE 18 30 29.71 1006 4 6 0.10 2.54
9:53 am 09:53 Cloudy with Light Rain 48 8.9 42 5.6 80 80 SSE 23 37 29.70 1006 9 14 0.08 2.03
10:08 am 10:08 Cloudy with Light Rain 48 8.9 42 5.6 80 80 SSE 22 35 29.72 1006 5 8 0.01 0.25
10:53 am 10:53 Cloudy with Light Rain 48 8.9 44 6.7 86 86 S 21 33 29.70 1006 5 8 0.05 1.27
11:12 am 11:12 Cloudy with Light Rain 48 8.9 44 6.7 86 86 S 18 30 29.71 1006 5 8 0.01 0.25
11:53 am 11:53 Cloudy with Light Rain 48 8.9 45 7.2 89 89 S 20 31 29.70 1006 5 8 0.03 0.76
12:53 pm 12:53 Cloudy with Light Rain 49 9.4 45 7.2 86 86 S 21 33 29.69 1006 6 10 0.01 0.25
1:53 pm 13:53 Cloudy 49 9.4 46 7.8 90 90 S 17 28 29.69 1005 10 16 0.00 0.00
2:53 pm 14:53 Cloudy 50 10 46 7.8 86 86 S 15 24 29.71 1006 10 16 0.00 0.00
3:48 pm 15:48 Cloudy with Light Rain 48 9 46 8 94 94 SW 8 13 29.76 1008 2 2 0.02 0.51
3:53 pm 15:53 Cloudy with Light Rain 48 8.9 46 7.8 93 93 SSW 6 9 29.75 1007 2 2 0.03 0.76
3:58 pm 15:58 Cloudy with Light Rain 48 8.9 47 8.3 96 96 SSW 6 9 29.76 1008 3 4 0.01 0.25
4:08 pm 16:08 Cloudy with Mist and Fog 48 8.9 46 7.8 93 93 SSW 5 7 29.76 1008 5 8 0.01 0.25
4:34 pm 16:34 Cloudy 48 8.9 46 7.8 93 93 NW 3 6 29.77 1008 8 13 0.01 0.25
4:53 pm 16:53 Cloudy 48 8.9 46 7.8 93 93 N 5 7 29.77 1008 7 11 0.01 0.25
5:53 pm 17:53 Cloudy 48 8.9 45 7.2 89 89 E 3 6 29.78 1009 9 14 0.00 0.00
6:22 pm 18:22 Mostly Clear 47 8.3 45 7.2 93 93 SE 5 7 29.80 1009 9 14 0.00 0.00
6:53 pm 18:53 Clear 46 7.8 44 6.7 93 93 SE 7 11 29.80 1009 7 11 0.00 0.00
7:32 pm 19:32 Mostly Clear 46 7.8 44 6.7 93 93 SSE 7 11 29.83 1010 8 13 0.00 0.00
7:53 pm 19:53 Mostly Clear 45 7.2 44 6.7 97 97 SE 3 6 29.83 1010 8 13 0.00 0.00
8:09 pm 20:09 Mostly Cloudy with Mist and Fog 46 7.8 44 6.7 93 93 Calm 29.86 1011 6 10 0.00 0.00
8:53 pm 20:53 Cloudy 47 8.3 45 7.2 93 93 Calm 29.87 1012 7 11 0.00 0.00
9:34 pm 21:34 Cloudy with Mist and Fog 46 7.8 44 6.7 93 93 S 7 11 29.89 1012 5 8 0.00 0.00
9:53 pm 21:53 Mostly Cloudy 45 7.2 44 6.7 97 97 SW 5 7 29.88 1012 7 11 0.00 0.00
10:04 pm 22:04 Partly Cloudy 45 7.2 43 6.1 93 93 SW 3 6 29.90 1013 7 11 0.00 0.00
10:14 pm 22:14 Partly Cloudy with Mist and Fog 44 6.7 43 6.1 96 96 WSW 5 7 29.90 1013 2 3 0.00 0.00
10:18 pm 22:18 Mostly Cloudy with Mist and Fog 44 6.7 43 6.1 96 96 W 5 7 29.91 1013 1 2 0.00 0.00
10:27 pm 22:27 Mostly Cloudy with Fog 44 6.7 43 6.1 96 96 W 3 6 29.91 1013 1 1 0.00 0.00
10:35 pm 22:35 Mostly Cloudy with Fog 44 6.7 42 5.6 93 93 NW 3 6 29.91 1013 0 0 0.00 0.00
10:53 pm 22:53 Mostly Cloudy with Fog 44 6.7 43 6.1 96 96 Calm 29.91 1013 0 0 0.00 0.00
11:12 pm 23:12 Cloudy with Fog 43 6.1 42 5.6 97 97 Calm 29.94 1014 0 0 0.00 0.00
11:25 pm 23:25 Cloudy with Mist and Fog 44 6.7 43 6.1 96 96 Calm 29.93 1014 1 1 0.00 0.00
11:29 pm 23:29 Cloudy with Mist and Fog 44 6.7 43 6.1 96 96 Calm 29.93 1014 2 2 0.00 0.00
11:42 pm 23:42 Cloudy with Mist and Fog 44 6.7 42 5.6 93 93 Calm 29.92 1013 2 3 0.00 0.00
11:49 pm 23:49 Cloudy with Mist and Fog 45 7 43 6 93 93 NNW 3 6 29.92 1013 2 2 0.00 0.00
11:50 pm 23:50 Cloudy with Mist and Fog 44 6.7 42 5.6 93 93 NNW 3 6 29.91 1013 2 2 0.00 0.00
11:59 pm 23:59 Cloudy with Mist and Fog 44 6.7 42 5.6 93 93 Calm 29.92 1013 1 1 0.00 0.00

Powered by AerisWeather